[[{"header":{"parameterUnit":"m.s-1","parameterCategory":1,"la1":30.2991,"la2":30.254,"lo1":-89.0895,"lo2":-89.0444,"dy":0.0017,"dx":0.0017,"nx":28,"ny":28,"refTime":"2024-08-07T21:00:00:Z","depth":0,"parameterNumber":2,"parameterNumberName":"U-component_of_WINDS"},"data":[0,0,0,0,0,0,0,0,0,0,0,0,0,0,0,0,0,0,0,0,0,0,0,0,0,0,0,0,0,0,0,0,0,0,0,0,0,0,0,0,0,0,0,0,0,0,0,0,0,0,0,0,0,0,0,0,0,0,2.5372,2.5373,0,2.5453,2.5454,2.5454,2.5424,2.5422,2.542,2.5418,2.5499,2.5503,2.5507,0,0,0,0,0,0,0,0,0,0,0,0,0,2.5192,2.5196,2.5372,2.5373,2.5374,2.5452,2.5454,2.5455,2.5424,2.5422,2.542,2.5417,2.5498,2.5503,2.5507,0,0,0,0,0,0,0,0,0,0,0,0,0,2.5271,2.5197,2.5372,2.5369,2.5369,2.5452,2.5454,2.5455,2.5425,2.5422,2.5419,2.5416,2.5497,2.5502,2.5508,2.5599,0,0,2.5526,2.5528,0,0,0,0,0,0,0,0,2.5267,2.5278,2.5368,2.5369,2.537,2.5425,2.542,2.5503,2.5425,2.5403,2.5418,2.5415,2.5477,2.5484,2.5505,2.5603,2.5606,2.5526,2.553,2.5532,2.5534,0,0,0,0,0,0,0,2.5261,2.5274,2.5404,2.5369,2.537,2.5363,2.5371,2.5435,2.5455,2.5405,2.5403,2.5413,2.5477,2.55,2.5507,2.5608,2.5526,2.5531,2.5535,2.5537,2.5785,2.5788,0,0,0,0,0,0,2.5256,2.527,2.5401,2.5406,2.531,2.5368,2.5377,2.541,2.5454,2.5458,2.5415,2.5411,2.5491,2.55,2.551,2.562,2.5532,2.5538,2.5541,2.5782,2.5786,2.5789,0,0,0,0,0,0,2.5252,2.5268,2.5398,2.5338,2.5354,2.5374,2.5411,2.5413,2.5436,2.5462,2.5465,2.5435,2.5489,2.5501,2.5578,2.5623,2.554,2.5546,2.5779,2.5784,2.5788,2.5842,0,0,0,0,0,0,2.5247,2.5266,2.5301,2.5339,2.5357,2.5465,2.5414,2.5417,2.5446,2.5442,2.5481,2.5485,2.5488,2.5569,2.5583,2.5629,2.555,2.5775,2.5781,2.5786,2.5836,2.5848,2.5858,0,0,0,0,0,2.524,2.5313,2.5303,2.5319,2.5401,2.5468,2.5478,2.5481,2.545,2.5486,2.5502,2.5484,2.5615,2.5577,2.5593,2.5641,2.5772,2.5779,2.5786,2.5832,2.5846,2.5858,0,0,0,0,0,0,2.528,2.5318,2.5308,2.5394,2.5428,2.5463,2.5507,2.5495,2.5538,2.5532,2.5533,2.5542,2.5621,2.5638,2.5595,2.5732,2.5689,2.57,2.5718,2.5732,2.5743,2.5737,2.5555,0,0,0,0,0,2.5299,2.535,2.538,2.5454,2.5471,2.5487,2.5516,2.5515,2.5549,2.5563,2.5585,2.562,2.5669,2.5701,2.5748,2.5838,2.5847,2.588,2.589,2.5899,2.5909,2.5959,2.5974,2.5812,2.5812,2.5812,0,0,2.5338,2.5365,2.5397,2.5463,2.5489,2.5542,2.5499,2.5556,2.5596,2.5572,2.5646,2.5663,2.5701,2.5786,2.5824,2.5803,2.5955,2.5908,2.5915,2.592,2.5968,2.5983,2.5997,2.5817,2.5816,2.5816,0,0,2.5438,2.5463,2.5528,2.5555,2.5595,2.5605,2.5621,2.5657,2.5668,2.5742,2.5726,2.5772,2.5856,2.5885,2.591,2.6021,2.6007,2.6036,2.6093,2.6143,2.6155,2.6167,2.6207,2.6222,2.6045,2.6046,2.6046,0,2.5482,2.5561,2.5562,2.5622,2.5651,2.5633,2.5699,2.5725,2.5778,2.5799,2.5775,2.5881,2.5905,2.5997,2.6024,2.6045,2.6063,2.6032,2.6153,2.6165,2.6175,2.6214,2.623,2.6049,2.6049,2.6048,2.6048,0,2.5614,2.5669,2.5717,2.577,2.5804,2.5867,2.5877,2.5912,2.5908,2.592,2.5996,2.6025,2.6078,2.6099,2.6095,2.619,2.6176,2.6153,2.6109,2.6194,2.6231,2.6246,2.6054,2.6053,2.6052,2.6051,0,0,2.5741,2.5794,2.5812,2.5836,2.5879,2.5922,2.5984,2.6036,2.6066,2.6103,2.6156,2.6228,2.6207,2.6236,2.6235,2.6278,2.6366,2.6249,2.625,2.6271,2.6473,2.6492,2.6509,2.6356,2.6359,2.6361,2.6471,0,2.5845,2.5953,2.5957,2.6056,2.6108,2.6091,2.6145,2.6177,2.6191,2.6236,2.625,2.6302,2.627,2.6288,2.6329,2.6346,2.6407,2.6338,2.6405,2.6407,2.6397,2.6528,2.6547,2.6649,2.6485,2.6487,2.6489,0,2.598,2.6023,2.6128,2.6165,2.6187,2.6235,2.6284,2.6327,2.6364,2.637,2.6403,2.6397,2.646,2.6414,2.6501,2.6455,2.6482,2.6494,2.6498,2.6506,2.6454,2.654,2.6682,2.6698,2.6511,2.6509,2.6508,0,2.6064,2.6147,2.6222,2.6243,2.6287,2.6322,2.6342,2.6376,2.6407,2.6449,2.647,2.6518,2.6545,2.6583,2.659,2.6555,2.6678,2.6632,2.6686,2.6686,2.6713,2.6711,2.6863,2.6729,2.6729,2.6728,2.6728,0,2.618,2.6246,2.626,2.6306,2.6378,2.6381,2.6453,2.647,2.6501,2.6549,2.6537,2.6583,2.6589,2.6636,2.6642,2.6714,2.6726,2.6733,2.6734,2.6735,2.6734,2.6754,2.6747,2.6732,2.6731,2.6731,2.673,0,2.6287,2.6299,2.6379,2.6414,2.6425,2.6477,2.6508,2.6551,2.6563,2.6625,2.664,2.6659,2.6714,2.6724,2.6789,2.6793,2.688,2.6873,2.6868,2.6868,2.6921,2.6916,2.7091,2.7115,2.6964,2.6966,2.6967,0,2.6361,2.6411,2.6452,2.6484,2.6506,2.6558,2.659,2.6595,2.6629,2.6675,2.6713,2.6767,2.6811,2.6901,2.692,2.697,2.6965,2.7023,2.6972,2.6972,2.6967,2.6965,2.697,2.7033,2.7034,2.7036,2.7037,0,2.6491,2.6495,2.6542,2.6592,2.6631,2.667,2.6707,2.6734,2.6743,2.6782,2.6839,2.6873,2.694,2.6995,2.7045,2.7065,2.7053,2.7052,2.7068,2.707,2.7066,2.707,2.6896,2.7049,2.7047,2.7047,2.7046,2.7045,2.6585,2.6629,2.6665,2.6718,2.6747,2.6782,2.6825,2.6843,2.6891,2.6946,2.6945,2.7008,2.7044,2.711,2.7134,2.7183,2.7164,2.7186,2.7192,2.7198,2.7204,2.7057,2.7192,2.7191,2.7191,2.7191,2.7191,0,2.6716,2.6739,2.6788,2.684,2.6882,2.6867,2.6908,2.6944,2.6999,2.7034,2.7077,2.7143,2.7196,2.722,2.7272,2.7307,2.7303,2.732,2.7318,2.7324,2.7216,2.7199,2.7323,2.7323,2.7323,2.7323,2.7323,2.7323,2.6789,2.6864,2.6872,2.696,2.6982,2.7044,2.7068,2.7101,2.7129,2.7203,2.7247,2.7262,2.7293,2.7347,2.7395,2.7401,2.7421,2.7442,2.7445,2.7344,2.7331,2.7318,2.7302,2.7446,2.7446,2.7548,2.7549,2.755]},{"header":{"parameterUnit":"m.s-1","parameterCategory":1,"la1":30.2991,"la2":30.254,"lo1":-89.0895,"lo2":-89.0444,"dy":0.0017,"dx":0.0017,"nx":28,"ny":28,"refTime":"2024-08-07T21:00:00:Z","depth":0,"parameterNumber":3,"parameterNumberName":"V-component_of_WINDS"},"data":[0,0,0,0,0,0,0,0,0,0,0,0,0,0,0,0,0,0,0,0,0,0,0,0,0,0,0,0,0,0,0,0,0,0,0,0,0,0,0,0,0,0,0,0,0,0,0,0,0,0,0,0,0,0,0,0,0,0,-0.416,-0.4161,0,-0.4208,-0.4209,-0.4209,-0.4226,-0.4225,-0.4225,-0.4225,-0.4275,-0.4276,-0.4278,0,0,0,0,0,0,0,0,0,0,0,0,0,-0.4084,-0.4085,-0.416,-0.4161,-0.4161,-0.4208,-0.4209,-0.4209,-0.4226,-0.4225,-0.4225,-0.4225,-0.4274,-0.4276,-0.4278,0,0,0,0,0,0,0,0,0,0,0,0,0,-0.4123,-0.4085,-0.416,-0.4175,-0.4177,-0.4208,-0.4209,-0.421,-0.4226,-0.4225,-0.4225,-0.4225,-0.4274,-0.4276,-0.4278,-0.4298,0,0,-0.4285,-0.4286,0,0,0,0,0,0,0,0,-0.4121,-0.4126,-0.4172,-0.4174,-0.4176,-0.4211,-0.42,-0.4239,-0.4226,-0.4207,-0.4225,-0.4225,-0.4254,-0.4258,-0.4267,-0.4301,-0.4303,-0.4285,-0.4287,-0.4288,-0.4288,0,0,0,0,0,0,0,-0.4118,-0.4124,-0.4179,-0.4173,-0.4175,-0.418,-0.4185,-0.4208,-0.4232,-0.4209,-0.421,-0.4215,-0.4255,-0.4265,-0.4269,-0.4303,-0.4285,-0.4287,-0.4289,-0.429,-0.4357,-0.4357,0,0,0,0,0,0,-0.4112,-0.4121,-0.4178,-0.4181,-0.4147,-0.4181,-0.4187,-0.42,-0.4231,-0.4236,-0.4216,-0.4216,-0.4261,-0.4266,-0.427,-0.4297,-0.4288,-0.429,-0.4291,-0.4357,-0.4357,-0.4358,0,0,0,0,0,0,-0.4111,-0.4117,-0.4176,-0.4151,-0.4159,-0.4183,-0.4197,-0.4201,-0.4211,-0.4237,-0.4241,-0.4222,-0.4261,-0.4267,-0.4292,-0.4299,-0.4291,-0.4293,-0.4356,-0.4357,-0.4357,-0.4349,0,0,0,0,0,0,-0.4108,-0.4117,-0.4124,-0.4151,-0.416,-0.4195,-0.4197,-0.4202,-0.4215,-0.4216,-0.4243,-0.4248,-0.4262,-0.4288,-0.4294,-0.4302,-0.4295,-0.4356,-0.4356,-0.4357,-0.4349,-0.4349,-0.435,0,0,0,0,0,-0.4106,-0.412,-0.4124,-0.4131,-0.417,-0.4196,-0.4201,-0.4216,-0.4216,-0.4224,-0.424,-0.4247,-0.4297,-0.429,-0.4297,-0.4306,-0.4355,-0.4356,-0.4357,-0.4348,-0.4349,-0.435,0,0,0,0,0,0,-0.4092,-0.4123,-0.4129,-0.4152,-0.4171,-0.4198,-0.4209,-0.4216,-0.4236,-0.4236,-0.4255,-0.4261,-0.4284,-0.4297,-0.4289,-0.4327,-0.4327,-0.4329,-0.4318,-0.4319,-0.4319,-0.4315,-0.4297,0,0,0,0,0,-0.4092,-0.411,-0.4136,-0.4154,-0.4163,-0.4184,-0.4196,-0.4207,-0.4227,-0.4235,-0.4254,-0.4274,-0.4294,-0.4307,-0.4327,-0.4351,-0.4358,-0.436,-0.4361,-0.4361,-0.4363,-0.4377,-0.4379,-0.4361,-0.4361,-0.4361,0,0,-0.4091,-0.4111,-0.4121,-0.4152,-0.4168,-0.4187,-0.4191,-0.421,-0.4225,-0.4238,-0.4262,-0.4277,-0.43,-0.4325,-0.4336,-0.4337,-0.437,-0.4362,-0.4362,-0.4364,-0.4379,-0.438,-0.4382,-0.4361,-0.4361,-0.4361,0,0,-0.41,-0.4116,-0.4133,-0.415,-0.4174,-0.4188,-0.4192,-0.4219,-0.4229,-0.4253,-0.4264,-0.4282,-0.4316,-0.4333,-0.4346,-0.4363,-0.437,-0.4369,-0.4371,-0.4386,-0.4387,-0.4388,-0.4395,-0.4397,-0.4371,-0.4371,-0.4371,0,-0.4097,-0.4125,-0.4141,-0.416,-0.4174,-0.4188,-0.4205,-0.4221,-0.425,-0.426,-0.426,-0.4304,-0.4321,-0.435,-0.4354,-0.4364,-0.437,-0.4366,-0.4385,-0.4387,-0.4388,-0.4395,-0.4397,-0.437,-0.437,-0.437,-0.4371,0,-0.4119,-0.4139,-0.415,-0.4178,-0.4194,-0.4212,-0.4232,-0.4245,-0.4255,-0.4269,-0.4294,-0.4315,-0.434,-0.4348,-0.4357,-0.4379,-0.4378,-0.4382,-0.4381,-0.439,-0.4396,-0.4399,-0.437,-0.437,-0.437,-0.437,0,0,-0.412,-0.4158,-0.4162,-0.4176,-0.4204,-0.422,-0.4239,-0.4264,-0.4275,-0.4296,-0.4313,-0.4343,-0.4346,-0.4361,-0.4373,-0.4385,-0.4398,-0.4387,-0.4388,-0.4389,-0.4424,-0.4421,-0.4424,-0.4403,-0.4404,-0.4404,-0.4422,0,-0.4133,-0.4168,-0.4184,-0.4212,-0.4231,-0.4244,-0.4262,-0.4281,-0.4296,-0.4314,-0.433,-0.4351,-0.4354,-0.4363,-0.4376,-0.4394,-0.4405,-0.4393,-0.442,-0.4421,-0.4414,-0.4427,-0.4424,-0.444,-0.4425,-0.4425,-0.4425,0,-0.4152,-0.4173,-0.4202,-0.423,-0.4238,-0.4253,-0.4278,-0.4295,-0.4318,-0.4328,-0.4345,-0.4357,-0.4379,-0.4377,-0.4408,-0.4399,-0.4411,-0.4422,-0.4423,-0.4426,-0.4423,-0.4431,-0.4445,-0.4448,-0.4429,-0.4429,-0.4429,0,-0.415,-0.4185,-0.4208,-0.4219,-0.4251,-0.4262,-0.4276,-0.4299,-0.4313,-0.4335,-0.4344,-0.4368,-0.4381,-0.44,-0.4418,-0.4415,-0.4448,-0.4447,-0.4457,-0.4457,-0.4463,-0.4462,-0.448,-0.4471,-0.4471,-0.4471,-0.4471,0,-0.4162,-0.418,-0.4208,-0.4222,-0.4242,-0.4261,-0.4282,-0.4297,-0.4317,-0.4335,-0.4349,-0.4365,-0.4388,-0.4408,-0.4422,-0.4446,-0.4452,-0.4461,-0.4464,-0.4459,-0.4458,-0.4468,-0.4467,-0.4471,-0.4471,-0.4471,-0.4471,0,-0.4163,-0.4182,-0.4208,-0.4237,-0.4245,-0.4259,-0.4284,-0.4298,-0.4314,-0.4336,-0.4343,-0.4367,-0.4391,-0.4411,-0.4442,-0.4452,-0.4478,-0.4482,-0.4469,-0.4471,-0.448,-0.4479,-0.4504,-0.4509,-0.4496,-0.4497,-0.4497,0,-0.417,-0.4184,-0.4215,-0.4228,-0.4241,-0.4262,-0.4277,-0.4296,-0.4311,-0.4339,-0.4351,-0.4376,-0.4397,-0.4434,-0.4455,-0.448,-0.4485,-0.4492,-0.4489,-0.4484,-0.4486,-0.4485,-0.4486,-0.4492,-0.4492,-0.4492,-0.4492,0,-0.418,-0.4189,-0.4209,-0.4234,-0.4251,-0.4271,-0.4291,-0.4301,-0.4324,-0.4341,-0.4365,-0.4382,-0.4414,-0.4439,-0.4466,-0.4481,-0.4491,-0.4493,-0.4497,-0.4492,-0.4485,-0.449,-0.4471,-0.4493,-0.4493,-0.4493,-0.4493,-0.4493,-0.4184,-0.4198,-0.4222,-0.4245,-0.4262,-0.4281,-0.4296,-0.4314,-0.4335,-0.4363,-0.4373,-0.4399,-0.4423,-0.446,-0.4476,-0.4497,-0.4498,-0.4503,-0.4504,-0.4505,-0.4505,-0.4482,-0.4502,-0.4502,-0.4502,-0.4502,-0.4502,0,-0.4196,-0.4212,-0.4232,-0.4261,-0.4279,-0.4286,-0.431,-0.4324,-0.4347,-0.4368,-0.4389,-0.4418,-0.4443,-0.4466,-0.4492,-0.4504,-0.451,-0.4511,-0.451,-0.4514,-0.4502,-0.4496,-0.4506,-0.4506,-0.4506,-0.4506,-0.4506,-0.4506,-0.4203,-0.4227,-0.4239,-0.4272,-0.4288,-0.4313,-0.4326,-0.4344,-0.4362,-0.4393,-0.4414,-0.4429,-0.4452,-0.448,-0.4503,-0.4509,-0.4519,-0.4519,-0.4526,-0.4515,-0.4514,-0.4514,-0.4508,-0.452,-0.452,-0.4536,-0.4536,-0.4536]}]]